Date String (YYYY-MM-DD hh:mm:ss) UTC,Instrument flags,absolute air pressure of the measurement (hPa),sample flow rate (lpm),inlet stack bypass flow (lpm),air temperature of the measurement (°C),ambient temperature measured by the external sensor (°C),aerosol sample conditioner tube jacket temperature (°C),OPC LED temperature (°C),internal box temperature (°C),relative humidity of the measurement (%),span deviation,mass concentration of particles derived from Lorenz-Mie calculation of OPC scattering (μg/m³),mass concentration of particles derived from Lorenz-Mie calculation of OPC scattering (μg/m³),mass concentration of particles derived from Lorenz-Mie calculation of OPC scattering (μg/m³)
DateTimeUTC,F1_M11,P_M11,Q1_M11,Q2_M11,T1_M11,T2_M11,T3_M11,T4_M11,T5_M11,U1_M11,ZSPAN_M11,X0_M11,X2_M11,X1_M11
2024-01-30 14:00:00,SystemResetWarning,0834.5,4.99,000.00,021.3,020.2,000.0,029.6,022.6,16.9,0000.0,0003.75,0001.48,0001.22
2024-01-30 14:01:00,SystemResetWarning,0834.5,4.99,000.00,021.3,020.2,000.0,029.6,022.6,16.8,0000.0,0002.65,0001.50,0001.23
2024-01-30 14:02:00,SystemResetWarning,0834.5,4.99,000.00,021.3,020.2,000.0,029.6,022.6,16.7,0000.0,0002.43,0001.51,0001.23
2024-01-30 14:03:00,SystemResetWarning,0834.5,5.01,000.00,021.3,020.2,000.0,029.6,022.6,16.1,0000.0,0002.32,0001.49,0001.22
2024-01-30 14:04:00,SystemResetWarning,0834.5,5.01,000.00,021.3,020.2,000.0,029.6,022.6,15.6,0000.0,0001.96,0001.45,0001.22
2024-01-30 14:05:00,SystemResetWarning,0834.5,5.00,000.00,021.3,020.2,000.0,029.6,022.6,15.2,0000.0,0002.04,0001.44,0001.23
2024-01-30 14:06:00,SystemResetWarning,0834.5,5.00,000.00,021.3,020.2,000.0,029.6,022.6,15.2,0000.0,0002.19,0001.49,0001.25
2024-01-30 14:07:00,SystemResetWarning,0834.5,5.00,000.00,021.3,020.2,000.0,029.6,022.6,15.5,0000.0,0002.18,0001.50,0001.28
2024-01-30 14:08:00,SystemResetWarning,0834.5,5.00,000.00,021.2,020.2,000.0,029.6,022.6,15.3,0000.0,0002.21,0001.51,0001.31
2024-01-30 14:09:00,SystemResetWarning,0834.5,5.00,000.00,021.2,020.1,000.0,029.6,022.6,15.0,0000.0,0002.22,0001.54,0001.35
2024-01-30 14:10:00,SystemResetWarning,0834.8,4.99,000.00,021.2,020.1,000.0,029.6,022.6,15.7,0000.0,0002.28,0001.59,0001.38
2024-01-30 14:11:00,SystemResetWarning,0834.9,5.00,000.00,021.2,020.1,000.0,029.6,022.6,16.0,0000.0,0002.78,0001.63,0001.42
2024-01-30 14:12:00,SystemResetWarning,0835.1,5.01,000.00,021.2,020.1,000.0,029.6,022.6,16.0,0000.0,0003.58,0001.69,0001.46
2024-01-30 14:13:00,SystemResetWarning,0835.1,5.01,000.00,021.2,020.1,000.0,029.6,022.6,15.7,0000.0,0003.68,0001.74,0001.49
2024-01-30 14:14:00,SystemResetWarning,0834.8,4.99,000.00,021.2,020.1,000.0,029.6,022.6,15.1,0000.0,0004.17,0001.81,0001.54
2024-01-30 14:15:00,SystemResetWarning,0834.7,4.99,000.00,021.2,020.1,000.0,029.6,022.6,15.0,0000.0,0004.68,0001.92,0001.60
2024-01-30 14:16:00,SystemResetWarning,0834.7,4.99,000.00,021.2,020.1,000.0,029.6,022.6,14.9,0000.0,0005.18,0002.02,0001.67
2024-01-30 14:17:00,SystemResetWarning,0835.1,5.00,000.00,021.2,020.1,000.0,029.5,022.5,14.7,0000.0,0005.00,0002.04,0001.72
2024-01-30 14:18:00,SystemResetWarning,0835.2,5.00,000.00,021.2,020.1,000.0,029.5,022.5,14.6,0000.0,0005.14,0002.10,0001.76
2024-01-30 14:19:00,SystemResetWarning,0835.2,5.00,000.00,021.2,020.1,000.0,029.5,022.6,14.7,0000.0,0006.42,0002.22,0001.82
2024-01-30 14:20:00,SystemResetWarning,0834.8,5.01,000.00,021.2,020.1,000.0,029.5,022.6,14.9,0000.0,0007.59,0002.35,0001.88
2024-01-30 14:21:00,SystemResetWarning,0834.8,5.00,000.00,021.2,020.1,000.0,029.5,022.6,15.1,0000.0,0008.06,0002.45,0001.93
2024-01-30 14:22:00,SystemResetWarning,0834.8,5.00,000.00,021.2,020.1,000.0,029.5,022.6,15.4,0000.0,0008.19,0002.55,0001.98
2024-01-30 14:23:00,SystemResetWarning,0834.7,5.00,000.00,021.2,020.1,000.0,029.5,022.6,15.1,0000.0,0007.61,0002.61,0002.01
2024-01-30 14:24:00,SystemResetWarning,0834.7,4.99,000.00,021.2,020.1,000.0,029.5,022.5,15.5,0000.0,0007.61,0002.63,0002.03
2024-01-30 14:25:00,SystemResetWarning,0834.8,5.00,000.00,021.2,020.1,000.0,029.5,022.5,15.8,0000.0,0008.39,0002.66,0002.05
2024-01-30 14:26:00,SystemResetWarning,0834.7,5.01,000.00,021.2,020.1,000.0,029.5,022.5,15.4,0000.0,0008.87,0002.68,0002.06
2024-01-30 14:27:00,SystemResetWarning,0834.7,5.00,000.00,021.2,020.1,000.0,029.5,022.5,14.7,0000.0,0009.20,0002.72,0002.06
2024-01-30 14:28:00,SystemResetWarning,0834.7,5.00,000.00,021.2,020.1,000.0,029.5,022.5,14.7,0000.0,0009.41,0002.75,0002.07
2024-01-30 14:29:00,SystemResetWarning,0834.8,5.01,000.00,021.2,020.1,000.0,029.5,022.5,14.8,0000.0,0009.48,0002.79,0002.07
2024-01-30 14:30:00,SystemResetWarning,0834.8,5.00,000.00,021.2,020.1,000.0,029.5,022.5,15.2,0000.0,0009.98,0002.72,0002.01
2024-01-30 14:31:00,SystemResetWarning,0835.2,5.00,000.00,021.2,020.1,000.0,029.5,022.5,15.4,0000.0,0009.17,0002.59,0001.94
2024-01-30 14:32:00,SystemResetWarning,0835.4,5.00,000.00,021.2,020.1,000.0,029.5,022.5,15.1,0000.0,0008.59,0002.45,0001.86
2024-01-30 14:33:00,SystemResetWarning,0835.4,5.00,000.00,021.2,020.1,000.0,029.5,022.5,15.0,0000.0,0008.24,0002.30,0001.79
2024-01-30 14:34:00,SystemResetWarning,0834.9,5.00,000.00,021.2,020.1,000.0,029.5,022.5,14.6,0000.0,0008.14,0002.19,0001.74
2024-01-30 14:35:00,SystemResetWarning,0835.0,5.00,000.00,021.2,020.1,000.0,029.5,022.5,14.6,0000.0,0008.11,0002.09,0001.65
2024-01-30 14:36:00,SystemResetWarning,0835.0,5.00,000.00,021.2,020.1,000.0,029.5,022.5,14.8,0000.0,0007.48,0002.02,0001.59
2024-01-30 14:37:00,SystemResetWarning,0835.0,5.00,000.00,021.2,020.1,000.0,029.5,022.5,15.2,0000.0,0006.12,0002.03,0001.57
2024-01-30 14:38:00,SystemResetWarning,0835.0,4.99,000.00,021.1,020.1,000.0,029.5,022.5,15.9,0000.0,0005.41,0001.94,0001.54
2024-01-30 14:39:00,SystemResetWarning,0835.0,5.00,000.00,021.1,020.1,000.0,029.5,022.5,16.2,0000.0,0004.64,0001.90,0001.51
2024-01-30 14:40:00,SystemResetWarning,0835.0,4.99,000.00,021.1,020.1,000.0,029.5,022.5,16.0,0000.0,0004.52,0001.82,0001.45
2024-01-30 14:41:00,SystemResetWarning,0835.1,5.00,000.00,021.1,020.1,000.0,029.5,022.5,15.6,0000.0,0003.27,0001.78,0001.43
2024-01-30 14:42:00,SystemResetWarning,0835.1,5.00,000.00,021.1,020.1,000.0,029.5,022.5,16.4,0000.0,0002.71,0001.76,0001.42
2024-01-30 14:43:00,SystemResetWarning,0835.2,5.00,000.00,021.1,020.1,000.0,029.5,022.5,16.5,0000.0,0002.69,0001.74,0001.40
2024-01-30 14:44:00,SystemResetWarning,0835.2,5.00,000.00,021.1,020.2,000.0,029.5,022.5,16.6,0000.0,0002.74,0001.74,0001.37
2024-01-30 14:45:00,SystemResetWarning,0835.1,5.00,000.00,021.1,020.2,000.0,029.5,022.5,16.6,0000.0,0002.76,0001.72,0001.34
2024-01-30 14:46:00,SystemResetWarning,0835.1,5.01,000.00,021.1,020.2,000.0,029.5,022.5,16.7,0000.0,0002.73,0001.71,0001.34
2024-01-30 14:47:00,SystemResetWarning,0835.1,5.00,000.00,021.1,020.2,000.0,029.5,022.5,16.9,0000.0,0002.64,0001.67,0001.34
2024-01-30 14:48:00,SystemResetWarning,0835.1,4.99,000.00,021.1,020.2,000.0,029.5,022.5,16.9,0000.0,0002.49,0001.63,0001.30
2024-01-30 14:49:00,SystemResetWarning,0835.1,4.99,000.00,021.1,020.2,000.0,029.5,022.5,16.1,0000.0,0003.38,0001.63,0001.27
2024-01-30 14:50:00,SystemResetWarning,0835.1,4.99,000.00,021.1,020.2,000.0,029.5,022.5,15.4,0000.0,0003.41,0001.59,0001.25
2024-01-30 14:51:00,SystemResetWarning,0835.2,5.00,000.00,021.1,020.2,000.0,029.4,022.5,15.6,0000.0,0003.81,0001.60,0001.28
2024-01-30 14:52:00,SystemResetWarning,0835.2,5.01,000.00,021.2,020.2,000.0,029.5,022.5,15.6,0000.0,0004.22,0001.59,0001.27
2024-01-30 14:53:00,SystemResetWarning,0835.2,5.00,000.00,021.2,020.2,000.0,029.4,022.5,15.6,0000.0,0004.19,0001.57,0001.25
2024-01-30 14:54:00,SystemResetWarning,0835.2,5.00,000.00,021.2,020.2,000.0,029.4,022.5,15.7,0000.0,0005.02,0001.59,0001.25
2024-01-30 14:55:00,SystemResetWarning,0835.3,5.00,000.00,021.2,020.2,000.0,029.5,022.6,15.7,0000.0,0005.20,0001.60,0001.25
2024-01-30 14:56:00,SystemResetWarning,0835.3,5.00,000.00,021.2,020.2,000.0,029.5,022.6,15.9,0000.0,0005.34,0001.60,0001.27
2024-01-30 14:57:00,SystemResetWarning,0835.3,5.00,000.00,021.2,020.2,000.0,029.5,022.6,16.0,0000.0,0005.55,0001.65,0001.29
2024-01-30 14:58:00,SystemResetWarning,0835.3,5.00,000.00,021.2,020.3,000.0,029.5,022.6,16.2,0000.0,0005.64,0001.64,0001.28
2024-01-30 14:59:00,SystemResetWarning,0835.3,5.01,000.00,021.2,020.3,000.0,029.5,022.6,16.1,0000.0,0005.48,0001.59,0001.27
